Presure
117 133 136 145 126 112 117 124 117 130 125 117 148 156 182 162 389 382 382 388 429 446 453 437 442 468 480 393 352 326 341 307 276 285 301 291 317 336 323 266 181 91 137 184 199 191 171
119 135 131 129 140 167 104 100 133 120 125 136 137 156 251 220 381 379 381 380 444 420 506 448 436 453 451 447 354 342 315 329 330 270 280 312 317 327 316 108 250 230 225 206 174 199 180
125 131 140 145 105 143 172 161 141 147 130 117 130 122 130 130 228 374 380 373 387 457 478 485 468 439 444 454 462 329 322 305 330 279 278 291 315 318 327 338 257 229 224 207 186 195 177
116 142 136 116 131 156 117 114 115 135 136 143 142 153 186 134 249 282 358 370 374 452 462 462 449 452 435 438 478 388 334 309 297 298 280 273 301 317 284 352 277 265 229 219 198 250 180
107 130 134 132 141 154 110 175 98 118 160 143 131 139 141 222 313 195 375 358 373 395 460 443 446 439 429 430 454 481 326 319 299 313 290 273 296 315 328 327 310 266 231 212 205 196 180
118 130 139 135 125 125 165 129 135 134 125 143 126 151 146 280 211 169 321 352 377 363 378 463 437 436 426 420 454 488 333 318 309 289 293 290 285 305 327 301 331 255 254 154 209 188 207
129 119 126 136 144 141 100 113 128 124 147 160 159 155 153 170 294 171 363 346 374 348 367 387 454 425 434 431 473 425 461 319 310 300 303 301 288 87 324 227 317 249 269 238 202 215 190
130 134 133 136 113 147 141 122 106 112 162 139 149 141 135 157 232 135 324 344 368 347 364 369 458 438 422 424 427 412 424 315 316 306 296 293 302 289 311 308 310 258 67 244 238 217 204
139 127 133 122 135 96 163 123 124 143 150 156 177 171 140 127 167 297 228 347 346 355 331 377 391 459 433 432 422 416 444 322 318 311 297 298 290 294 307 292 292 285 264 132 250 227 216
134 132 134 131 123 136 123 163 117 117 173 127 155 149 187 158 151 159 181 177 356 340 337 369 395 463 460 438 448 411 442 338 314 306 292 289 293 287 297 288 257 282 254 251 247 251 222
135 131 136 124 132 155 135 133 108 148 126 170 178 173 128 147 158 161 127 350 329 337 326 362 358 471 456 448 450 427 423 391 309 305 291 289 288 298 294 289 264 330 322 250 232 251 249
142 123 140 126 133 155 150 152 146 113 115 156 141 169 146 142 151 146 353 355 220 328 334 337 349 363 413 415 439 435 402 333 306 304 294 284 287 286 292 296 295 319 270 269 258 248 251
141 121 133 126 137 109 148 139 139 143 122 147 111 131 189 146 160 201 319 180 340 337 324 323 330 343 356 419 448 389 389 305 307 300 295 294 288 292 292 293 303 253 267 317 264 255 250
161 117 165 127 142 152 119 141 131 127 143 125 145 129 140 161 147 186 163 357 190 339 324 349 326 320 330 350 353 374 318 294 314 301 288 294 287 287 301 300 283 269 308 261 270 265 253
157 149 147 126 142 151 158 106 161 148 148 141 153 185 148 152 148 169 180 182 291 205 344 327 333 324 314 325 340 351 308 291 297 296 289 299 285 278 268 286 299 300 282 269 318 264 266
168 154 141 127 140 150 135 112 111 138 141 123 139 170 150 183 174 157 195 365 348 336 321 330 332 323 316 298 313 338 326 326 294 292 287 285 287 286 289 283 293 292 298 290 260 265 264
167 147 131 151 160 147 180 134 136 143 128 137 146 154 178 172 177 279 189 180 355 174 326 311 315 315 323 313 295 304 342 347 279 267 285 289 269 284 285 285 282 290 247 291 300 265 292
165 132 131 135 123 155 183 168 148 133 133 106 158 157 167 149 152 164 160 167 358 339 184 314 305 306 306 306 308 314 302 315 342 284 297 275 282 285 282 284 281 275 279 300 300 297 298
146 147 134 151 154 151 176 150 126 127 139 129 142 146 167 165 162 199 171 357 145 274 327 322 302 317 306 302 302 303 302 296 299 323 322 299 299 286 284 286 289 294 296 272 263 270 287
162 186 158 161 159 154 150 146 127 125 127 120 123 136 207 147 143 249 155 141 386 205 247 147 308 300 303 296 291 294 288 293 296 302 300 292 294 305 308 350 338 326 297 303 330 333 286
158 153 154 152 126 136 139 142 135 117 149 127 145 144 147 132 198 176 138 329 144 257 339 187 310 300 296 294 304 293 289 280 278 289 287 295 295 301 290 291 289 287 290 295 283 282 303
132 149 160 157 127 153 134 132 141 137 129 127 147 142 152 165 218 162 154 147 444 132 150 324 169 304 294 286 280 305 304 286 284 278 273 286 291 297 299 288 286 288 290 281 287 288 291
129 162 148 122 130 138 137 118 143 139 117 140 143 141 153 166 191 142 137 207 140 280 203 325 286 309 297 287 281 276 299 301 308 286 283 281 285 281 280 288 283 288 286 280 278 287 285
156 131 138 120 128 166 137 136 141 131 124 138 150 132 145 159 154 147 130 150 367 355 274 325 184 308 300 290 283 275 270 267 303 297 296 289 285 287 276 271 278 272 267 264 265 277 279
155 147 147 141 125 137 131 143 139 120 119 134 147 137 176 205 136 132 154 253 162 422 360 174 260 169 308 295 290 284 274 274 262 258 253 297 302 294 286 297 271 271 270 268 287 269 269
134 147 134 119 141 158 143 146 133 125 133 144 126 143 137 141 142 148 216 130 209 164 395 342 151 155 302 303 289 292 283 273 267 264 260 253 249 264 293 303 290 300 293 270 266 264 274
140 144 132 120 147 162 154 138 123 126 135 138 118 170 162 146 138 115 196 149 142 216 158 142 268 185 208 299 293 291 292 290 277 270 266 262 259 250 250 272 282 306 293 272 270 271 266
139 145 136 123 153 165 148 111 113 130 137 99 149 171 158 193 161 116 124 150 228 200 157 166 188 323 308 299 291 284 287 286 286 287 280 268 264 262 256 249 245 282 284 304 295 266 266
143 143 141 143 140 143 139 140 93 148 142 144 125 139 117 216 127 141 107 123 253 249 333 147 337 315 278 306 290 286 279 281 283 281 281 286 286 270 263 262 255 245 282 284 277 285 282
Wind_Speed
19 31 36 45 13 32 33 40 51 47 43 58 61 65 69 58 83 82 80 76 64 49 20 21 21 21 26 74 81 88 86 86 80 80 78 79 76 70 84 103 80 34 50 96 108 104 92
21 35 33 18 42 64 39 22 56 54 44 50 57 63 91 83 86 83 81 78 59 55 14 24 24 19 25 50 80 82 87 82 78 82 79 76 72 70 83 36 110 112 109 104 89 106 99
28 34 42 45 33 43 70 54 37 49 47 54 59 61 61 64 89 84 81 82 79 41 20 9 19 20 21 25 41 80 86 87 81 86 81 77 73 75 75 83 110 112 111 102 99 104 95
25 40 39 18 26 56 31 36 47 41 45 52 53 64 79 58 94 88 84 82 78 47 31 19 9 7 18 19 16 66 85 89 85 86 83 82 79 74 91 68 104 112 111 107 106 115 95
20 34 37 27 39 55 33 73 28 54 53 46 58 54 58 91 78 74 79 82 73 60 36 21 14 7 12 16 14 30 82 88 86 87 86 83 82 73 69 80 98 110 107 105 110 103 100
27 36 42 36 10 26 66 23 28 34 54 47 58 58 57 106 80 66 79 81 65 63 51 19 14 3 6 11 12 27 79 85 85 83 86 84 82 78 67 86 79 100 103 66 111 101 112
33 26 29 40 51 31 33 42 26 46 34 56 66 67 63 79 101 71 74 78 62 67 54 53 13 9 4 6 18 41 34 85 85 83 84 80 82 5 58 65 74 103 113 112 109 113 105
33 39 37 43 27 49 43 40 46 49 51 41 56 52 57 71 102 43 79 73 57 65 57 45 23 5 2 10 35 48 54 81 84 81 82 81 76 76 70 73 73 101 12 110 116 112 112
44 36 38 27 41 23 67 26 31 22 42 46 73 73 56 56 64 96 87 70 67 54 68 51 55 7 2 12 37 37 44 79 83 79 80 79 76 77 72 79 79 95 110 47 116 112 113
38 39 41 38 16 47 34 65 44 39 74 46 53 55 85 73 67 60 76 49 56 60 62 54 59 17 6 14 30 36 53 76 77 77 77 77 78 75 72 76 90 93 106 109 114 117 114
38 40 42 30 36 62 52 26 38 48 35 78 83 78 41 53 72 81 40 62 61 55 58 51 56 26 15 19 33 37 61 69 72 71 74 75 75 74 70 75 87 60 72 107 107 115 117
44 34 45 34 40 62 54 50 52 35 32 55 43 68 51 54 64 62 62 56 50 53 51 50 48 48 31 22 30 52 58 66 68 73 74 77 76 70 69 71 74 60 94 112 113 113 113
43 35 41 33 45 33 51 47 44 43 29 58 48 48 96 63 82 87 74 84 52 46 47 45 43 42 38 32 37 50 52 60 71 71 73 79 73 70 66 69 67 85 95 72 112 114 111
48 33 48 37 48 57 25 53 27 23 46 33 57 48 47 64 54 89 77 52 81 43 41 27 33 35 33 27 31 34 50 49 65 67 70 75 65 63 65 62 69 80 67 91 107 115 115
46 45 46 39 46 53 56 35 68 50 67 42 72 87 68 51 52 91 90 83 47 82 32 32 21 23 28 22 14 25 46 48 56 61 63 68 62 59 55 63 66 64 74 90 65 107 115
46 47 41 42 45 52 46 36 35 57 58 32 55 85 59 79 64 83 93 42 37 37 34 24 22 16 15 19 17 11 22 39 49 56 57 61 65 63 64 61 62 65 67 72 87 94 103
44 40 44 48 52 49 58 47 53 65 37 57 69 73 89 88 77 104 93 86 32 71 30 24 16 12 10 9 12 12 8 18 39 29 50 60 41 59 58 56 56 58 52 66 67 83 77
42 38 45 45 41 49 55 56 56 53 54 28 84 64 79 39 46 73 80 82 32 29 68 21 16 9 9 10 13 5 6 10 20 40 52 41 49 55 53 57 56 57 59 61 60 60 62
37 40 44 47 47 47 54 53 45 48 65 51 73 48 86 87 60 107 75 39 27 34 21 19 15 7 3 5 9 12 12 11 14 21 39 47 48 48 51 51 51 50 53 56 57 59 53
41 50 44 45 47 44 47 52 46 46 52 41 32 50 86 31 41 92 52 44 22 46 44 40 15 10 3 2 2 7 10 13 12 16 19 23 25 27 34 34 36 43 46 46 40 36 50
40 38 42 42 42 46 48 51 53 38 66 54 74 67 40 30 97 86 29 76 47 40 18 65 16 14 8 3 5 8 10 11 13 13 14 15 17 21 23 24 26 30 30 25 31 39 35
34 33 40 42 43 43 47 49 55 59 58 52 77 68 76 91 92 33 47 45 21 27 48 15 57 14 12 9 6 6 10 14 16 18 18 18 18 18 24 24 24 24 26 32 31 32 32
39 39 34 36 46 45 45 39 54 57 41 68 73 62 77 92 97 21 31 91 43 45 62 16 20 14 14 13 11 9 10 13 17 19 20 22 22 23 23 23 24 20 25 26 28 29 29
36 34 34 39 46 48 47 48 53 52 54 68 75 55 72 86 36 25 28 48 58 15 39 18 60 15 17 17 15 14 12 12 13 16 20 23 23 26 28 29 28 32 32 34 34 31 29
34 32 35 40 43 43 45 49 52 48 48 68 73 64 66 83 32 22 36 90 67 16 16 40 31 58 18 19 19 19 17 17 15 15 15 16 21 26 27 33 33 36 36 36 33 37 37
39 35 37 39 44 45 44 46 50 51 59 65 56 76 55 47 30 19 81 27 85 58 21 19 53 55 19 19 20 21 21 21 22 21 21 20 19 17 22 29 32 39 41 37 39 40 40
40 37 38 40 43 44 45 45 44 50 57 62 41 61 61 70 14 27 64 59 38 65 59 50 21 42 39 23 21 19 21 23 25 26 24 25 24 24 22 20 23 32 36 38 41 43 43
44 39 39 40 42 46 44 34 42 52 57 22 66 61 69 75 74 28 29 46 77 66 67 62 38 25 25 26 25 24 22 23 23 25 28 28 28 27 27 27 25 24 25 30 36 42 43
46 41 39 42 39 41 39 46 17 53 56 61 56 38 28 77 24 50 23 35 91 76 37 35 20 24 27 28 29 29 28 27 26 25 25 26 30 31 30 29 28 29 23 26 28 30 32
Wind_Direction
340 354 355 351 317 308 309 318 315 321 346 332 344 347 344 345 352 353 355 353 348 350 287 286 275 249 237 217 212 217 212 219 219 218 217 214 214 216 211 209 215 239 206 216 215 219 224
341 346 351 333 343 342 325 351 333 315 356 334 336 347 357 353 353 354 355 355 349 352 290 269 275 254 237 226 214 210 218 212 209 217 214 214 213 215 211 224 210 214 214 214 222 218 225
343 347 346 348 326 340 336 341 12 356 319 336 321 328 329 333 359 355 356 357 352 2 355 315 255 247 234 237 218 207 212 216 205 217 212 212 214 212 211 209 209 214 213 213 218 218 222
337 341 346 292 350 346 298 343 315 324 320 351 343 349 344 334 358 357 357 358 356 4 1 350 336 249 233 230 230 206 203 211 213 209 213 209 212 213 208 210 207 207 212 212 216 215 220
316 340 344 353 348 345 309 334 347 319 13 344 319 337 332 359 356 1 356 359 357 16 2 355 330 280 237 227 226 192 203 206 211 203 213 209 212 213 212 209 206 208 211 213 216 218 224
329 337 339 336 314 310 334 322 318 318 315 344 321 351 342 3 358 360 358 359 359 6 11 358 4 316 264 210 205 182 200 202 205 211 210 210 211 210 213 207 207 210 210 216 216 220 220
329 326 335 338 342 346 329 312 319 344 1 15 7 359 358 359 2 357 360 359 357 1 10 21 355 12 323 181 187 163 185 198 204 206 205 211 212 176 214 212 207 208 206 213 218 218 222
328 332 333 339 278 342 325 314 321 323 358 338 8 347 345 360 358 341 1 360 1 3 10 14 9 16 350 159 160 175 185 196 201 201 205 211 212 209 208 206 207 207 234 213 215 217 219
325 329 331 337 337 326 335 312 315 332 357 12 1 9 345 339 350 2 0 2 2 5 0 20 20 12 171 169 171 183 176 192 197 197 204 208 212 212 208 206 206 204 207 217 215 219 220
323 326 331 339 299 322 340 332 332 330 339 322 7 2 358 9 360 354 2 350 7 4 359 23 22 30 105 154 171 172 164 187 193 196 202 209 212 213 208 208 208 206 210 213 216 219 221
319 322 328 332 334 330 323 344 328 343 327 346 346 356 360 353 6 1 337 3 3 3 357 26 28 42 78 135 156 163 161 168 193 194 202 208 213 216 211 208 209 213 210 214 219 219 222
314 323 323 329 334 330 335 321 342 322 344 2 0 359 358 341 3 357 356 2 355 4 5 12 34 41 52 77 143 152 154 176 188 195 198 208 213 213 212 211 213 217 212 210 216 222 223
311 322 318 332 330 300 334 344 333 350 314 356 332 346 343 350 7 357 356 3 1 6 5 12 27 39 49 73 117 142 150 177 185 194 199 208 215 215 216 214 216 214 214 217 215 219 225
306 322 315 327 327 329 315 339 342 333 351 336 356 340 349 5 4 1 1 352 2 4 9 30 27 33 40 77 94 139 164 182 188 193 202 211 218 218 218 217 218 217 222 219 216 217 225
304 309 313 323 326 329 329 301 333 337 341 356 351 347 333 15 6 4 360 359 356 354 10 14 18 43 49 52 96 131 170 186 192 199 208 213 219 223 216 221 222 223 221 220 230 222 222
301 305 313 317 324 328 335 299 302 341 346 327 3 341 350 339 8 10 358 347 346 350 0 16 7 36 54 55 59 117 177 184 199 202 210 217 217 222 225 225 226 228 229 228 227 225 228
301 306 306 317 317 326 322 327 337 333 337 345 350 349 337 342 11 359 354 3 341 4 347 5 20 19 46 63 79 91 131 183 210 220 216 219 225 229 231 233 231 232 236 235 237 230 235
300 305 308 312 325 324 321 327 327 339 343 333 334 346 348 18 358 4 6 6 336 343 2 350 359 14 44 67 82 63 115 147 183 219 217 234 228 230 237 238 238 238 238 241 243 242 240
299 305 303 310 315 321 321 325 332 339 337 347 340 351 337 342 5 331 12 349 1 349 332 328 341 4 71 101 105 115 118 145 166 193 220 232 237 237 238 243 244 243 244 241 235 237 240
297 297 302 308 312 318 322 322 333 338 336 345 354 344 349 8 353 357 13 10 317 360 354 357 322 331 7 164 172 139 158 149 174 196 205 211 216 222 230 231 234 234 237 240 236 235 230
291 299 300 306 315 316 322 322 327 335 327 340 336 348 2 1 338 337 355 339 7 346 309 356 300 308 306 281 174 191 194 206 200 187 196 206 215 210 205 208 208 214 225 225 221 227 232
288 296 303 304 315 312 320 325 322 326 334 338 333 343 339 335 347 357 19 22 261 355 2 293 356 282 293 295 283 236 217 218 210 206 209 205 205 211 219 215 214 227 227 214 215 222 222
286 294 295 310 310 312 317 329 320 325 337 332 332 334 333 328 337 342 348 349 11 339 349 282 313 259 263 265 268 264 244 228 227 222 218 215 211 209 211 215 210 208 211 212 218 221 217
286 285 292 313 308 308 313 318 320 326 328 331 326 342 334 331 352 354 335 11 338 266 335 272 346 256 250 251 251 251 251 258 238 228 226 229 229 223 220 216 209 217 218 220 222 219 212
282 281 289 290 307 307 313 313 320 324 329 329 324 331 344 347 335 356 19 0 9 292 252 348 320 354 245 241 241 239 241 244 251 250 250 234 234 234 236 224 223 223 221 223 223 223 217
274 280 279 304 295 302 307 311 317 322 325 321 326 324 330 335 337 0 358 342 358 355 246 244 353 350 260 245 244 238 235 237 242 240 238 242 242 246 238 235 234 228 224 230 230 230 217
269 275 278 297 294 300 304 311 317 318 321 320 322 330 337 328 303 327 352 340 10 342 355 348 302 340 334 256 248 242 239 236 235 240 242 241 239 240 240 250 246 237 233 231 232 231 230
270 274 277 290 293 296 302 315 316 316 318 310 315 325 328 338 325 331 330 335 359 357 342 342 338 246 249 251 253 255 252 247 245 245 243 243 243 244 243 243 241 250 247 239 234 231 234
269 274 278 284 289 297 305 304 310 311 314 312 321 334 321 341 335 323 324 321 357 359 336 340 268 261 283 245 248 252 257 259 258 252 248 250 248 246 244 245 243 244 252 247 243 237 237